TimeCDT,TemperatureF,Dew PointF,Humidity,Sea Level PressureIn,VisibilityMPH,Wind Direction,Wind SpeedMPH,Gust SpeedMPH,PrecipitationIn,Events,Conditions,WindDirDegrees,DateUTC
12:15 AM,74.8,72.1,91,30.09,10.0,North,4.6,-,N/A,,Mostly Cloudy,350,2013-08-04 05:15:00
12:35 AM,74.8,71.6,90,30.09,10.0,Calm,Calm,-,N/A,,Scattered Clouds,0,2013-08-04 05:35:00
12:55 AM,75.2,71.4,88,30.09,10.0,Calm,Calm,-,N/A,,Clear,0,2013-08-04 05:55:00
1:15 AM,74.8,70.7,87,30.09,10.0,Calm,Calm,-,N/A,,Clear,0,2013-08-04 06:15:00
1:35 AM,73.6,69.3,86,30.09,10.0,Calm,Calm,-,N/A,,Clear,0,2013-08-04 06:35:00
1:55 AM,72.9,68.9,87,30.08,7.0,Calm,Calm,-,N/A,,Clear,0,2013-08-04 06:55:00
2:15 AM,72.7,68.9,88,30.08,10.0,Calm,Calm,-,N/A,,Clear,0,2013-08-04 07:15:00
2:35 AM,72.7,68.4,86,30.07,10.0,Calm,Calm,-,N/A,,Clear,0,2013-08-04 07:35:00
2:55 AM,72.1,68.0,87,30.07,10.0,Calm,Calm,-,N/A,,Clear,0,2013-08-04 07:55:00
3:15 AM,72.7,68.5,87,30.07,10.0,North,3.5,-,N/A,,Clear,360,2013-08-04 08:15:00
3:35 AM,72.7,68.2,86,30.07,10.0,North,3.5,-,N/A,,Clear,10,2013-08-04 08:35:00
3:55 AM,72.0,67.5,86,30.07,10.0,Calm,Calm,-,N/A,,Clear,0,2013-08-04 08:55:00
4:15 AM,71.1,66.7,86,30.08,10.0,Calm,Calm,-,N/A,,Scattered Clouds,0,2013-08-04 09:15:00
4:35 AM,69.8,65.5,86,30.09,10.0,Calm,Calm,-,N/A,,Scattered Clouds,0,2013-08-04 09:35:00
4:55 AM,69.8,65.7,87,30.10,10.0,Calm,Calm,-,N/A,,Clear,0,2013-08-04 09:55:00
5:15 AM,70.2,65.8,86,30.11,10.0,North,3.5,-,N/A,,Clear,350,2013-08-04 10:15:00
5:35 AM,70.2,65.5,85,30.12,10.0,NNW,3.5,-,N/A,,Scattered Clouds,340,2013-08-04 10:35:00
5:55 AM,69.1,64.6,86,30.12,10.0,Calm,Calm,-,N/A,,Scattered Clouds,0,2013-08-04 10:55:00
6:15 AM,69.4,64.8,85,30.13,10.0,Calm,Calm,-,N/A,,Clear,0,2013-08-04 11:15:00
6:35 AM,69.3,64.8,86,30.13,10.0,North,4.6,-,N/A,,Clear,360,2013-08-04 11:35:00
6:55 AM,70.7,65.8,85,30.13,10.0,NNE,3.5,-,N/A,,Clear,30,2013-08-04 11:55:00
7:15 AM,71.1,65.8,84,30.13,10.0,NNE,3.5,-,N/A,,Clear,30,2013-08-04 12:15:00
7:35 AM,71.4,65.8,82,30.13,10.0,NE,6.9,-,N/A,,Clear,40,2013-08-04 12:35:00
7:55 AM,71.6,65.7,81,30.13,10.0,NE,5.8,-,N/A,,Clear,40,2013-08-04 12:55:00
8:15 AM,72.9,66.6,81,30.14,10.0,NNE,6.9,-,N/A,,Clear,30,2013-08-04 13:15:00
8:35 AM,72.9,66.2,80,30.15,10.0,NE,5.8,-,N/A,,Clear,40,2013-08-04 13:35:00
8:55 AM,73.9,66.2,77,30.15,10.0,NE,4.6,-,N/A,,Clear,40,2013-08-04 13:55:00
9:15 AM,75.6,65.7,71,30.15,10.0,NE,5.8,-,N/A,,Clear,40,2013-08-04 14:15:00
9:35 AM,76.3,64.6,67,30.15,10.0,ENE,6.9,-,N/A,,Clear,70,2013-08-04 14:35:00
9:55 AM,77.5,64.6,64,30.16,10.0,ENE,8.1,-,N/A,,Clear,60,2013-08-04 14:55:00
10:15 AM,78.8,64.9,62,30.16,10.0,NE,6.9,-,N/A,,Clear,40,2013-08-04 15:15:00
10:35 AM,79.0,64.0,60,30.16,10.0,NE,6.9,-,N/A,,Clear,40,2013-08-04 15:35:00
10:55 AM,80.1,64.4,59,30.15,10.0,ENE,5.8,-,N/A,,Clear,70,2013-08-04 15:55:00
11:15 AM,80.8,64.9,58,30.15,10.0,NE,8.1,-,N/A,,Clear,50,2013-08-04 16:15:00
11:35 AM,81.1,63.9,56,30.15,10.0,NE,9.2,-,N/A,,Clear,50,2013-08-04 16:35:00
11:55 AM,80.6,63.7,56,30.15,10.0,NE,8.1,-,N/A,,Clear,50,2013-08-04 16:55:00
12:15 PM,81.7,64.2,55,30.14,10.0,NNE,6.9,-,N/A,,Clear,30,2013-08-04 17:15:00
12:35 PM,82.2,64.0,54,30.13,10.0,East,6.9,-,N/A,,Clear,80,2013-08-04 17:35:00
12:55 PM,82.2,65.3,56,30.13,10.0,NE,5.8,-,N/A,,Clear,50,2013-08-04 17:55:00
1:15 PM,81.7,64.9,57,30.13,10.0,NNE,6.9,-,N/A,,Clear,20,2013-08-04 18:15:00
1:35 PM,81.0,63.7,56,30.13,10.0,NE,5.8,-,N/A,,Clear,40,2013-08-04 18:35:00
1:55 PM,81.5,63.5,54,30.13,10.0,NNE,5.8,-,N/A,,Clear,20,2013-08-04 18:55:00
2:15 PM,81.7,63.9,55,30.13,10.0,NE,5.8,-,N/A,,Clear,40,2013-08-04 19:15:00
2:35 PM,82.4,63.3,52,30.13,10.0,East,5.8,-,N/A,,Clear,90,2013-08-04 19:35:00
2:55 PM,82.4,63.1,52,30.12,10.0,NE,4.6,-,N/A,,Clear,50,2013-08-04 19:55:00
3:15 PM,82.8,65.1,55,30.11,10.0,ENE,5.8,-,N/A,,Clear,70,2013-08-04 20:15:00
3:35 PM,82.4,64.4,54,30.11,10.0,NE,6.9,-,N/A,,Clear,40,2013-08-04 20:35:00
3:55 PM,81.9,64.4,55,30.10,10.0,ENE,4.6,-,N/A,,Clear,70,2013-08-04 20:55:00
4:15 PM,82.4,64.0,54,30.11,10.0,NE,3.5,-,N/A,,Clear,40,2013-08-04 21:15:00
4:35 PM,82.9,63.7,52,30.11,10.0,NE,6.9,-,N/A,,Clear,40,2013-08-04 21:35:00
4:55 PM,82.6,63.7,53,30.10,10.0,NE,8.1,-,N/A,,Clear,40,2013-08-04 21:55:00
5:15 PM,81.9,63.0,53,30.10,10.0,NNE,5.8,-,N/A,,Clear,30,2013-08-04 22:15:00
5:35 PM,81.0,63.3,55,30.10,10.0,NNE,3.5,-,N/A,,Clear,30,2013-08-04 22:35:00
5:55 PM,80.4,64.2,58,30.10,10.0,NNE,3.5,-,N/A,,Clear,30,2013-08-04 22:55:00
6:15 PM,79.9,65.1,61,30.10,10.0,Calm,Calm,-,N/A,,Clear,0,2013-08-04 23:15:00
6:35 PM,79.2,65.8,64,30.10,10.0,NNE,4.6,-,N/A,,Clear,20,2013-08-04 23:35:00
6:55 PM,78.3,64.4,62,30.10,10.0,NNE,3.5,-,N/A,,Clear,20,2013-08-04 23:55:00
7:15 PM,77.9,64.4,63,30.10,10.0,NNE,4.6,-,N/A,,Clear,20,2013-08-05 00:15:00
7:35 PM,75.7,64.8,69,30.10,10.0,NE,5.8,-,N/A,,Clear,40,2013-08-05 00:35:00
7:55 PM,74.8,64.4,70,30.10,10.0,NE,4.6,-,N/A,,Clear,40,2013-08-05 00:55:00
8:15 PM,73.6,64.4,73,30.09,10.0,NE,5.8,-,N/A,,Clear,50,2013-08-05 01:15:00
8:35 PM,73.0,64.0,73,30.09,10.0,ENE,5.8,-,N/A,,Clear,60,2013-08-05 01:35:00
8:55 PM,72.7,64.0,74,30.10,7.0,NE,4.6,-,N/A,,Clear,40,2013-08-05 01:55:00
9:15 PM,72.7,64.4,75,30.10,10.0,NE,3.5,-,N/A,,Clear,50,2013-08-05 02:15:00
9:35 PM,72.9,64.4,75,30.10,10.0,ENE,5.8,-,N/A,,Clear,70,2013-08-05 02:35:00
9:55 PM,73.6,63.9,72,30.10,7.0,East,4.6,-,N/A,,Clear,80,2013-08-05 02:55:00
10:15 PM,73.4,63.5,71,30.11,10.0,Calm,Calm,-,N/A,,Clear,0,2013-08-05 03:15:00
10:35 PM,72.7,63.9,74,30.11,10.0,East,3.5,-,N/A,,Clear,80,2013-08-05 03:35:00
10:55 PM,71.6,64.4,78,30.12,10.0,Calm,Calm,-,N/A,,Clear,0,2013-08-05 03:55:00
11:15 PM,72.1,64.4,77,30.10,10.0,East,4.6,-,N/A,,Clear,80,2013-08-05 04:15:00
11:35 PM,72.0,64.2,77,30.10,10.0,East,4.6,-,N/A,,Clear,80,2013-08-05 04:35:00
11:55 PM,72.5,63.9,74,30.10,10.0,East,4.6,-,N/A,,Clear,100,2013-08-05 04:55:00